Overview Statistics Trail Chart Weather Telemetry Raw packets
 

This is the latest recevied weather packets stored in our database for station/object N7BTW-13. If no packets are shown the sender has not sent any weather packets the latest 10 day(s).

<< 16 17 18 19 20 21 22 >>
Time Temp. Humidity Pressure Rain* Wind** Luminosity Snow
1788379219 15° C 97% - 0.51 mm - - -
1788378606 15° C 97% - 1.02 mm - - -
1788378007 15° C 97% - 1.02 mm - - -
1788377434 15° C 97% - 1.27 mm - - -
1788376806 15° C 97% - 1.02 mm - - -
1788376208 15° C 96% - 1.27 mm - - -
1788375607 15° C 95% - 1.27 mm - - -
1788375010 15° C 95% - 0.76 mm - - -
1788374409 15° C 96% - 1.02 mm - - -
1788373808 15° C 96% - 1.02 mm - - -
1788373205 15° C 95% - 1.27 mm - - -
1788372607 15° C 94% - 1.27 mm - - -
1788372008 15° C 94% - 1.27 mm - - -
1788371406 15° C 94% - 1.27 mm - - -
1788370808 15° C 93% - 1.02 mm - - -
1788370208 15° C 92% - 0.76 mm - - -
1788369608 15.56° C 90% - 0.51 mm - - -
1788369008 15.56° C 89% - 0.25 mm - - -
1788368409 16.11° C 87% - 0 mm - - -
1788367809 16.11° C 85% - 0 mm - - -
1788367207 16.67° C 83% - 0 mm - - -
1788366608 17.22° C 81% - 0 mm - - -
1788366006 17.22° C 81% - 0 mm - - -
1788365407 17.22° C 80% - 0 mm - - -
1788364809 16.67° C 80% - 0 mm - - -

* Rain latest hour (hover to see other rain measurements)
** Current wind speed in m/s (hover to see current wind gust speed)